Weather in Nosovaya

Russia / Nenets Autonomous Okrug     68°14′56″N   54°34′26″E
temp.,
°C
wind,
m/s
gust,
m/s
humid.,
%
clouds,
%
prec.,
mm/h
press.,
hPa
HPBL,
m
1 march, mon
mon100:00−12ssw71294100 0.3 1005268
03:00−12ssw81394100 0.4 1002282
06:00−8s91593100 0.5 997407
09:00−7ssw111793100 1.3 993616
12:00−5ssw111694100 1.1 988743
15:00−4s101694100 2.4 984722
18:00−2wsw61094100 0.9 981430
21:000wnw91493100 1.6 982653
2 march, tue
tue200:00−1w61195100 0.1 982385
03:00−2wsw599798 0.2 983239
06:00−3wsw599697 0.4 983230
09:00−4sw479795 0.7 984194
12:00−4sw4696100 0.5 985172
15:00−4wnw229799 1.1 98745
18:00−7nnw3395100 0.3 98859
21:00−10nne2397100 0.3 98822
3 march, wed
wed300:00−12nne4496100 0.0 98977
03:00−14nne489698 0.1 990145
06:00−14nne5895100 0.1 990209
09:00−14nne5795100 0.4 991251
12:00−13n469497 0.1 991252
15:00−12n359598 0.4 992212
18:00−13nne2296100 0.3 99221
21:00−12ne3596100 0.6 993107
4 march, thu
thu400:00−14ene699496 0.3 993303
03:00−16ne6109498 0.4 994354
06:00−17ne61094100 0.2 994329
09:00−18ne71194100 0.3 995365
12:00−17ne61093100 0.0 996424
15:00−17nne51093100 0.0 997351
18:00−18nne61195100 0.0 997359
21:00−20nne61098100 0.1 997233
5 march, fri
fri500:00−21nne51098100 0.0 997214
03:00−21n5998100 0.1 998231
06:00−20n61097100 0.1 998293
09:00−19n6994100 0.1 998431
12:00−19n5893100 0.1 1000507
15:00−19n5895100 0.1 1001459
18:00−19n5895100 0.1 1002397
21:00−20n5996100 0.2 1003376